Time,TemperatureF,DewpointF,PressureIn,WindDirection,WindDirectionDegrees,WindSpeedMPH,WindSpeedGustMPH,Humidity,HourlyPrecipIn,Conditions,Clouds,dailyrainin,SoftwareType,DateUTC
2013-06-12 00:00:00,45.9,27.3,30.15,SW,225,0.0,0.0,48,0.00,CLR,,0.00,WeatherDisplay:10.37,2013-06-12 07:00:00,
2013-06-12 00:05:00,45.7,27.6,30.15,SW,225,1.2,0.0,49,0.00,CLR,,0.00,WeatherDisplay:10.37,2013-06-12 07:05:00,
2013-06-12 00:10:00,45.7,27.6,30.15,SW,225,1.2,0.0,49,0.00,CLR,,0.00,WeatherDisplay:10.37,2013-06-12 07:10:00,
2013-06-12 00:15:00,45.5,27.9,30.15,SW,225,1.2,0.0,50,0.00,CLR,,0.00,WeatherDisplay:10.37,2013-06-12 07:15:00,
2013-06-12 00:20:00,45.3,27.8,30.15,SW,225,0.0,0.0,50,0.00,CLR,,0.00,WeatherDisplay:10.37,2013-06-12 07:20:00,
2013-06-12 00:25:00,45.1,28.5,30.15,SW,225,0.0,0.0,52,0.00,CLR,,0.00,WeatherDisplay:10.37,2013-06-12 07:25:00,
2013-06-12 00:30:00,45.0,27.9,30.15,SW,225,0.0,0.0,51,0.00,CLR,,0.00,WeatherDisplay:10.37,2013-06-12 07:30:00,
2013-06-12 00:35:00,45.0,28.4,30.16,SW,225,1.2,0.0,52,0.00,CLR,,0.00,WeatherDisplay:10.37,2013-06-12 07:35:00,
2013-06-12 00:40:00,45.0,28.4,30.16,SW,225,0.0,0.0,52,0.00,CLR,,0.00,WeatherDisplay:10.37,2013-06-12 07:40:00,
2013-06-12 00:45:00,44.8,28.2,30.15,SW,225,0.0,0.0,52,0.00,CLR,,0.00,WeatherDisplay:10.37,2013-06-12 07:45:00,
2013-06-12 00:50:00,44.4,27.9,30.15,SW,225,0.0,0.0,52,0.00,CLR,,0.00,WeatherDisplay:10.37,2013-06-12 07:50:00,
2013-06-12 00:55:00,44.2,27.7,30.15,SW,225,0.0,0.0,52,0.00,CLR,,0.00,WeatherDisplay:10.37,2013-06-12 07:55:00,
2013-06-12 01:00:00,44.2,28.2,30.15,SW,225,0.0,0.0,53,0.00,CLR,,0.00,WeatherDisplay:10.37,2013-06-12 08:00:00,
2013-06-12 01:05:00,44.2,28.6,30.15,SW,225,0.0,0.0,54,0.00,CLR,,0.00,WeatherDisplay:10.37,2013-06-12 08:05:00,
2013-06-12 01:10:00,44.2,28.6,30.15,SW,225,0.0,0.0,54,0.00,CLR,,0.00,WeatherDisplay:10.37,2013-06-12 08:10:00,
2013-06-12 01:15:00,44.2,29.5,30.16,SW,225,0.0,0.0,56,0.00,CLR,,0.00,WeatherDisplay:10.37,2013-06-12 08:15:00,
2013-06-12 01:20:00,44.4,29.7,30.15,SW,225,1.6,0.0,56,0.00,CLR,,0.00,WeatherDisplay:10.37,2013-06-12 08:20:00,
2013-06-12 01:25:00,44.4,29.7,30.15,SW,225,0.0,0.0,56,0.00,CLR,,0.00,WeatherDisplay:10.37,2013-06-12 08:25:00,
2013-06-12 01:30:00,44.4,29.7,30.15,SW,225,0.0,0.0,56,0.00,CLR,,0.00,WeatherDisplay:10.37,2013-06-12 08:30:00,
2013-06-12 01:35:00,44.2,29.5,30.16,South,180,0.0,0.0,56,0.00,CLR,,0.00,WeatherDisplay:10.37,2013-06-12 08:35:00,
2013-06-12 01:40:00,44.1,28.9,30.15,South,180,0.0,0.0,55,0.00,CLR,,0.00,WeatherDisplay:10.37,2013-06-12 08:40:00,
2013-06-12 01:45:00,44.1,28.9,30.15,South,180,0.0,0.0,55,0.00,CLR,,0.00,WeatherDisplay:10.37,2013-06-12 08:45:00,
2013-06-12 01:50:00,43.9,29.2,30.15,South,180,0.0,0.0,56,0.00,CLR,,0.00,WeatherDisplay:10.37,2013-06-12 08:50:00,
2013-06-12 01:55:00,43.9,29.2,30.16,South,180,0.0,0.0,56,0.00,CLR,,0.00,WeatherDisplay:10.37,2013-06-12 08:55:00,
2013-06-12 02:00:00,43.7,29.0,30.15,South,180,0.0,0.0,56,0.00,CLR,,0.00,WeatherDisplay:10.37,2013-06-12 09:00:00,
2013-06-12 02:05:00,43.7,29.0,30.15,South,180,0.0,0.0,56,0.00,CLR,,0.00,WeatherDisplay:10.37,2013-06-12 09:05:00,
2013-06-12 02:10:00,43.7,29.0,30.15,South,180,0.0,0.0,56,0.00,CLR,,0.00,WeatherDisplay:10.37,2013-06-12 09:10:00,
2013-06-12 02:15:00,43.7,29.0,30.15,West,270,0.0,0.0,56,0.00,CLR,,0.00,WeatherDisplay:10.37,2013-06-12 09:15:00,
2013-06-12 02:20:00,43.7,29.0,30.15,West,270,1.2,0.0,56,0.00,CLR,,0.00,WeatherDisplay:10.37,2013-06-12 09:20:00,
2013-06-12 02:25:00,43.5,28.8,30.15,West,270,0.0,0.0,56,0.00,CLR,,0.00,WeatherDisplay:10.37,2013-06-12 09:25:00,
2013-06-12 02:30:00,43.3,28.7,30.15,West,270,0.0,0.0,56,0.00,CLR,,0.00,WeatherDisplay:10.37,2013-06-12 09:30:00,
2013-06-12 02:35:00,43.2,28.5,30.15,West,270,0.0,0.0,56,0.00,CLR,,0.00,WeatherDisplay:10.37,2013-06-12 09:35:00,
2013-06-12 02:40:00,43.0,28.3,30.15,West,270,0.0,0.0,56,0.00,CLR,,0.00,WeatherDisplay:10.37,2013-06-12 09:40:00,
2013-06-12 02:45:00,42.8,28.2,30.15,West,270,0.0,0.0,56,0.00,CLR,,0.00,WeatherDisplay:10.37,2013-06-12 09:45:00,
2013-06-12 02:50:00,42.8,28.2,30.15,West,270,0.0,0.0,56,0.00,CLR,,0.00,WeatherDisplay:10.37,2013-06-12 09:50:00,
2013-06-12 02:55:00,42.8,28.2,30.15,West,270,0.0,0.0,56,0.00,CLR,,0.00,WeatherDisplay:10.37,2013-06-12 09:55:00,
2013-06-12 03:00:00,43.0,28.8,30.15,West,270,0.0,0.0,57,0.00,CLR,,0.00,WeatherDisplay:10.37,2013-06-12 10:00:00,
2013-06-12 03:05:00,43.0,28.3,30.14,West,270,0.0,0.0,56,0.00,CLR,,0.00,WeatherDisplay:10.37,2013-06-12 10:05:00,
2013-06-12 03:10:00,43.0,28.8,30.15,West,270,1.2,0.0,57,0.00,CLR,,0.00,WeatherDisplay:10.37,2013-06-12 10:10:00,
2013-06-12 03:15:00,43.3,29.1,30.14,West,270,0.0,0.0,57,0.00,CLR,,0.00,WeatherDisplay:10.37,2013-06-12 10:15:00,
2013-06-12 03:20:00,43.3,29.1,30.15,West,270,0.0,0.0,57,0.00,CLR,,0.00,WeatherDisplay:10.37,2013-06-12 10:20:00,
2013-06-12 03:25:00,43.3,29.1,30.15,West,270,0.0,0.0,57,0.00,CLR,,0.00,WeatherDisplay:10.37,2013-06-12 10:25:00,
2013-06-12 03:30:00,43.3,29.5,30.14,West,270,1.2,0.0,58,0.00,CLR,,0.00,WeatherDisplay:10.37,2013-06-12 10:30:00,
2013-06-12 03:35:00,43.5,29.7,30.14,West,270,0.0,0.0,58,0.00,CLR,,0.00,WeatherDisplay:10.37,2013-06-12 10:35:00,
2013-06-12 03:40:00,43.7,29.9,30.15,West,270,0.0,0.0,58,0.00,CLR,,0.00,WeatherDisplay:10.37,2013-06-12 10:40:00,
2013-06-12 03:45:00,43.7,29.9,30.15,West,270,0.0,0.0,58,0.00,CLR,,0.00,WeatherDisplay:10.37,2013-06-12 10:45:00,
2013-06-12 03:50:00,43.9,30.0,30.15,West,270,0.0,0.0,58,0.00,CLR,,0.00,WeatherDisplay:10.37,2013-06-12 10:50:00,
2013-06-12 03:55:00,43.9,30.5,30.15,West,270,1.2,0.0,59,0.00,CLR,,0.00,WeatherDisplay:10.37,2013-06-12 10:55:00,
2013-06-12 04:00:00,44.1,30.6,30.15,West,270,1.2,0.0,59,0.00,CLR,,0.00,WeatherDisplay:10.37,2013-06-12 11:00:00,
2013-06-12 04:05:00,44.1,30.6,30.15,SW,225,1.2,0.0,59,0.00,CLR,,0.00,WeatherDisplay:10.37,2013-06-12 11:05:00,
2013-06-12 04:10:00,44.2,31.2,30.15,SW,225,1.2,0.0,60,0.00,CLR,,0.00,WeatherDisplay:10.37,2013-06-12 11:10:00,
2013-06-12 04:15:00,44.2,31.2,30.15,SW,225,1.2,0.0,60,0.00,CLR,,0.00,WeatherDisplay:10.37,2013-06-12 11:15:00,
2013-06-12 04:20:00,44.2,31.2,30.15,SW,225,1.2,0.0,60,0.00,CLR,,0.00,WeatherDisplay:10.37,2013-06-12 11:20:00,
2013-06-12 04:25:00,44.6,31.6,30.15,South,180,1.2,0.0,60,0.00,CLR,,0.00,WeatherDisplay:10.37,2013-06-12 11:25:00,
2013-06-12 04:30:00,44.6,32.0,30.14,South,180,0.0,0.0,61,0.00,CLR,,0.00,WeatherDisplay:10.37,2013-06-12 11:30:00,
2013-06-12 04:35:00,44.8,32.1,30.15,West,270,1.2,0.0,61,0.00,CLR,,0.00,WeatherDisplay:10.37,2013-06-12 11:35:00,
2013-06-12 04:40:00,45.0,32.3,30.15,West,270,0.0,0.0,61,0.00,CLR,,0.00,WeatherDisplay:10.37,2013-06-12 11:40:00,
2013-06-12 04:45:00,45.1,32.5,30.15,West,270,1.2,0.0,61,0.00,CLR,,0.00,WeatherDisplay:10.37,2013-06-12 11:45:00,
2013-06-12 04:50:00,45.3,33.1,30.15,SW,225,1.2,1.2,62,0.00,CLR,,0.00,WeatherDisplay:10.37,2013-06-12 11:50:00,
2013-06-12 04:55:00,45.3,33.1,30.15,SW,225,1.2,1.2,62,0.00,CLR,,0.00,WeatherDisplay:10.37,2013-06-12 11:55:00,
2013-06-12 05:00:00,45.5,33.2,30.15,SW,225,1.2,0.0,62,0.00,CLR,,0.00,WeatherDisplay:10.37,2013-06-12 12:00:00,
2013-06-12 05:05:00,45.5,33.2,30.15,West,270,0.0,0.0,62,0.00,CLR,,0.00,WeatherDisplay:10.37,2013-06-12 12:05:00,
2013-06-12 05:10:00,45.5,33.6,30.15,SW,225,1.2,1.2,63,0.00,CLR,,0.00,WeatherDisplay:10.37,2013-06-12 12:10:00,
2013-06-12 05:15:00,45.5,33.2,30.15,SW,225,1.2,0.0,62,0.00,CLR,,0.00,WeatherDisplay:10.37,2013-06-12 12:15:00,
2013-06-12 05:20:00,45.7,33.8,30.15,SW,225,1.2,0.0,63,0.00,CLR,,0.00,WeatherDisplay:10.37,2013-06-12 12:20:00,
2013-06-12 05:25:00,45.7,33.8,30.15,West,270,1.2,0.0,63,0.00,CLR,,0.00,WeatherDisplay:10.37,2013-06-12 12:25:00,
2013-06-12 05:30:00,45.9,34.0,30.15,NW,315,1.2,0.0,63,0.00,CLR,,0.00,WeatherDisplay:10.37,2013-06-12 12:30:00,
2013-06-12 05:35:00,45.7,33.8,30.15,SW,225,1.2,0.0,63,0.00,CLR,,0.00,WeatherDisplay:10.37,2013-06-12 12:35:00,
2013-06-12 05:40:00,45.9,34.0,30.15,West,270,1.2,0.0,63,0.00,CLR,,0.00,WeatherDisplay:10.37,2013-06-12 12:40:00,
2013-06-12 05:45:00,46.0,34.1,30.15,West,270,0.0,0.0,63,0.00,CLR,,0.00,WeatherDisplay:10.37,2013-06-12 12:45:00,
2013-06-12 05:50:00,46.0,34.5,30.15,NW,315,1.2,0.0,64,0.00,CLR,,0.00,WeatherDisplay:10.37,2013-06-12 12:50:00,
2013-06-12 05:55:00,46.0,34.5,30.16,West,270,1.2,0.0,64,0.00,CLR,,0.00,WeatherDisplay:10.37,2013-06-12 12:55:00,
2013-06-12 06:00:00,46.2,34.7,30.16,West,270,0.7,0.0,64,0.00,CLR,,0.00,WeatherDisplay:10.37,2013-06-12 13:00:00,
2013-06-12 06:05:00,46.4,34.9,30.16,West,270,1.2,0.0,64,0.00,CLR,,0.00,WeatherDisplay:10.37,2013-06-12 13:05:00,
2013-06-12 06:10:00,46.6,35.0,30.16,SW,225,1.6,1.6,64,0.00,CLR,,0.00,WeatherDisplay:10.37,2013-06-12 13:10:00,
2013-06-12 06:15:00,46.6,35.0,30.17,SW,225,2.3,2.3,64,0.00,CLR,,0.00,WeatherDisplay:10.37,2013-06-12 13:15:00,
2013-06-12 06:20:00,46.8,35.2,30.17,SW,225,1.2,0.0,64,0.00,CLR,,0.00,WeatherDisplay:10.37,2013-06-12 13:20:00,
2013-06-12 06:25:00,46.8,35.2,30.17,SW,225,1.2,1.2,64,0.00,CLR,,0.00,WeatherDisplay:10.37,2013-06-12 13:25:00,
2013-06-12 06:30:00,46.6,35.0,30.17,SW,225,2.3,0.0,64,0.00,CLR,,0.00,WeatherDisplay:10.37,2013-06-12 13:30:00,
2013-06-12 06:35:00,46.6,35.0,30.17,SW,225,1.6,1.6,64,0.00,CLR,,0.00,WeatherDisplay:10.37,2013-06-12 13:35:00,
2013-06-12 06:40:00,46.6,35.0,30.17,SW,225,1.2,1.2,64,0.00,CLR,,0.00,WeatherDisplay:10.37,2013-06-12 13:40:00,
2013-06-12 06:45:00,46.8,35.2,30.17,SW,225,2.3,0.0,64,0.00,CLR,,0.00,WeatherDisplay:10.37,2013-06-12 13:45:00,
2013-06-12 06:50:00,46.8,35.6,30.17,SW,225,2.3,2.3,65,0.00,CLR,,0.00,WeatherDisplay:10.37,2013-06-12 13:50:00,
2013-06-12 06:55:00,46.9,35.8,30.17,SW,225,2.3,2.3,65,0.00,CLR,,0.00,WeatherDisplay:10.37,2013-06-12 13:55:00,
2013-06-12 07:00:00,46.9,35.8,30.17,SW,225,2.3,2.3,65,0.00,CLR,,0.00,WeatherDisplay:10.37,2013-06-12 14:00:00,
2013-06-12 07:05:00,47.1,36.0,30.17,South,180,1.2,0.0,65,0.00,CLR,,0.00,WeatherDisplay:10.37,2013-06-12 14:05:00,
2013-06-12 07:10:00,47.5,36.7,30.17,South,180,1.2,0.0,66,0.00,CLR,,0.00,WeatherDisplay:10.37,2013-06-12 14:10:00,
2013-06-12 07:15:00,47.8,37.0,30.17,SW,225,1.2,0.0,66,0.00,CLR,,0.00,WeatherDisplay:10.37,2013-06-12 14:15:00,
2013-06-12 07:20:00,47.8,37.0,30.17,SW,225,1.6,0.0,66,0.00,CLR,,0.00,WeatherDisplay:10.37,2013-06-12 14:20:00,
2013-06-12 07:25:00,48.0,37.2,30.17,SW,225,1.2,0.0,66,0.00,CLR,,0.00,WeatherDisplay:10.37,2013-06-12 14:25:00,
2013-06-12 07:30:00,48.4,37.5,30.17,SW,225,2.3,2.3,66,0.00,CLR,,0.00,WeatherDisplay:10.37,2013-06-12 14:30:00,
2013-06-12 07:35:00,48.6,37.7,30.17,SW,225,2.3,2.3,66,0.00,CLR,,0.00,WeatherDisplay:10.37,2013-06-12 14:35:00,
2013-06-12 07:40:00,48.9,38.1,30.17,South,180,1.2,0.0,66,0.00,CLR,,0.00,WeatherDisplay:10.37,2013-06-12 14:40:00,
2013-06-12 07:45:00,49.6,38.7,30.17,SW,225,1.2,0.0,66,0.00,CLR,,0.00,WeatherDisplay:10.37,2013-06-12 14:45:00,
2013-06-12 07:50:00,50.7,40.2,30.17,NW,315,1.2,0.0,67,0.00,CLR,,0.00,WeatherDisplay:10.37,2013-06-12 14:50:00,
2013-06-12 07:55:00,51.6,41.0,30.17,South,180,0.0,0.0,67,0.00,CLR,,0.00,WeatherDisplay:10.37,2013-06-12 14:55:00,
2013-06-12 08:00:00,52.3,41.7,30.17,NW,315,1.2,0.0,67,0.00,CLR,,0.00,WeatherDisplay:10.37,2013-06-12 15:00:00,
2013-06-12 08:05:00,52.5,41.9,30.17,West,270,1.2,0.0,67,0.00,CLR,,0.00,WeatherDisplay:10.37,2013-06-12 15:05:00,
2013-06-12 08:10:00,52.7,41.3,30.17,NW,315,2.3,0.0,65,0.00,CLR,,0.00,WeatherDisplay:10.37,2013-06-12 15:10:00,
2013-06-12 08:15:00,52.9,41.0,30.17,East,90,1.2,0.0,64,0.00,CLR,,0.00,WeatherDisplay:10.37,2013-06-12 15:15:00,
2013-06-12 08:20:00,53.1,40.8,30.17,NE,45,1.2,0.0,63,0.00,CLR,,0.00,WeatherDisplay:10.37,2013-06-12 15:20:00,
2013-06-12 08:25:00,53.4,41.1,30.17,South,180,1.2,0.0,63,0.00,CLR,,0.00,WeatherDisplay:10.37,2013-06-12 15:25:00,
2013-06-12 08:31:00,53.8,40.6,30.17,North,0,1.2,1.2,61,0.00,CLR,,0.00,WeatherDisplay:10.37,2013-06-12 15:31:00,
2013-06-12 08:36:00,54.1,40.6,30.17,NE,45,1.2,0.0,60,0.00,CLR,,0.00,WeatherDisplay:10.37,2013-06-12 15:36:00,
2013-06-12 08:44:00,54.4,39.9,30.17,North,0,2.3,0.0,58,0.00,CLR,,0.00,WeatherDisplay:10.37,2013-06-12 15:44:00,
2013-06-12 08:49:00,54.5,38.2,30.17,North,0,2.3,0.0,54,0.00,CLR,,0.00,WeatherDisplay:10.37,2013-06-12 15:49:00,
2013-06-12 08:54:00,54.9,38.0,30.17,East,90,1.2,1.2,53,0.00,CLR,,0.00,WeatherDisplay:10.37,2013-06-12 15:54:00,
2013-06-12 08:59:00,55.0,36.7,30.17,SE,135,0.0,0.0,50,0.00,CLR,,0.00,WeatherDisplay:10.37,2013-06-12 15:59:00,
2013-06-12 09:04:00,55.6,36.7,30.17,NE,45,1.2,0.0,49,0.00,CLR,,0.00,WeatherDisplay:10.37,2013-06-12 16:04:00,
2013-06-12 09:09:00,55.8,34.2,30.17,SW,225,1.2,0.0,44,0.00,CLR,,0.00,WeatherDisplay:10.37,2013-06-12 16:09:00,
2013-06-12 09:14:00,56.3,31.0,30.17,South,180,1.2,0.0,38,0.00,CLR,,0.00,WeatherDisplay:10.37,2013-06-12 16:14:00,
2013-06-12 09:19:00,56.8,26.5,30.17,SSE,158,2.3,2.3,31,0.00,CLR,,0.00,WeatherDisplay:10.37,2013-06-12 16:19:00,
2013-06-12 09:24:00,57.2,22.6,30.17,South,180,1.2,1.2,26,0.00,CLR,,0.00,WeatherDisplay:10.37,2013-06-12 16:24:00,
2013-06-12 09:29:00,57.6,17.9,30.17,South,180,2.3,2.3,21,0.00,CLR,,0.00,WeatherDisplay:10.37,2013-06-12 16:29:00,
2013-06-12 09:34:00,57.4,23.6,30.17,South,180,1.2,0.0,27,0.00,CLR,,0.00,WeatherDisplay:10.37,2013-06-12 16:34:00,
2013-06-12 09:39:00,57.6,29.4,30.17,South,180,2.3,2.3,34,0.00,CLR,,0.00,WeatherDisplay:10.37,2013-06-12 16:39:00,
2013-06-12 09:44:00,57.9,29.7,30.18,South,180,2.3,2.3,34,0.00,CLR,,0.00,WeatherDisplay:10.37,2013-06-12 16:44:00,
2013-06-12 09:49:00,58.3,30.0,30.18,SE,135,2.3,2.3,34,0.00,CLR,,0.00,WeatherDisplay:10.37,2013-06-12 16:49:00,
2013-06-12 09:54:00,57.9,31.8,30.18,South,180,3.5,3.5,37,0.00,CLR,,0.00,WeatherDisplay:10.37,2013-06-12 16:54:00,
2013-06-12 09:59:00,57.7,32.3,30.18,South,180,3.5,3.5,38,0.00,CLR,,0.00,WeatherDisplay:10.37,2013-06-12 16:59:00,
2013-06-12 10:04:00,57.4,32.0,30.18,SE,135,1.2,1.2,38,0.00,CLR,,0.00,WeatherDisplay:10.37,2013-06-12 17:04:00,
2013-06-12 10:09:00,57.6,32.1,30.18,SSE,158,3.8,3.8,38,0.00,CLR,,0.00,WeatherDisplay:10.37,2013-06-12 17:09:00,
2013-06-12 10:14:00,58.1,32.6,30.18,South,180,3.5,3.5,38,0.00,CLR,,0.00,WeatherDisplay:10.37,2013-06-12 17:14:00,
2013-06-12 10:19:00,59.0,33.4,30.18,South,180,4.6,4.6,38,0.00,CLR,,0.00,WeatherDisplay:10.37,2013-06-12 17:19:00,
2013-06-12 10:24:00,60.4,34.0,30.18,South,180,2.3,0.0,37,0.00,CLR,,0.00,WeatherDisplay:10.37,2013-06-12 17:24:00,
2013-06-12 10:29:00,61.3,33.4,30.17,SW,225,3.5,3.5,35,0.00,CLR,,0.00,WeatherDisplay:10.37,2013-06-12 17:29:00,
2013-06-12 10:34:00,61.3,34.1,30.18,SSW,202,1.2,1.2,36,0.00,CLR,,0.00,WeatherDisplay:10.37,2013-06-12 17:34:00,
2013-06-12 10:39:00,60.8,34.3,30.18,South,180,3.5,0.0,37,0.00,CLR,,0.00,WeatherDisplay:10.37,2013-06-12 17:39:00,
2013-06-12 10:44:00,60.4,34.0,30.18,North,0,1.2,0.0,37,0.00,CLR,,0.00,WeatherDisplay:10.37,2013-06-12 17:44:00,
2013-06-12 10:49:00,60.1,35.0,30.18,NE,45,2.3,2.3,39,0.00,CLR,,0.00,WeatherDisplay:10.37,2013-06-12 17:49:00,
2013-06-12 10:54:00,59.4,35.6,30.18,NE,45,1.6,1.6,41,0.00,CLR,,0.00,WeatherDisplay:10.37,2013-06-12 17:54:00,
2013-06-12 10:59:00,59.2,36.7,30.18,East,90,1.2,0.0,43,0.00,CLR,,0.00,WeatherDisplay:10.37,2013-06-12 17:59:00,
2013-06-12 11:04:00,58.8,36.4,30.18,East,90,2.3,2.3,43,0.00,CLR,,0.00,WeatherDisplay:10.37,2013-06-12 18:04:00,
2013-06-12 11:09:00,59.0,37.7,30.18,NW,315,1.2,0.0,45,0.00,CLR,,0.00,WeatherDisplay:10.37,2013-06-12 18:09:00,
2013-06-12 11:14:00,59.7,38.3,30.19,SW,225,1.2,0.0,45,0.00,CLR,,0.00,WeatherDisplay:10.37,2013-06-12 18:14:00,
2013-06-12 11:19:00,59.9,37.9,30.19,SW,225,0.0,0.0,44,0.00,CLR,,0.00,WeatherDisplay:10.37,2013-06-12 18:19:00,
2013-06-12 11:24:00,60.3,37.7,30.18,North,0,1.2,0.0,43,0.00,CLR,,0.00,WeatherDisplay:10.37,2013-06-12 18:24:00,
2013-06-12 11:29:00,60.6,36.8,30.19,North,0,1.2,1.2,41,0.00,CLR,,0.00,WeatherDisplay:10.37,2013-06-12 18:29:00,
2013-06-12 11:34:00,60.8,35.0,30.18,NE,45,3.5,3.5,38,0.00,CLR,,0.00,WeatherDisplay:10.37,2013-06-12 18:34:00,
2013-06-12 11:39:00,61.3,35.5,30.19,West,270,3.5,3.5,38,0.00,CLR,,0.00,WeatherDisplay:10.37,2013-06-12 18:39:00,
2013-06-12 11:44:00,61.5,34.3,30.19,SW,225,2.3,2.3,36,0.00,CLR,,0.00,WeatherDisplay:10.37,2013-06-12 18:44:00,
2013-06-12 11:49:00,62.1,33.3,30.19,West,270,3.5,3.5,34,0.00,CLR,,0.00,WeatherDisplay:10.37,2013-06-12 18:49:00,
2013-06-12 11:54:00,62.6,34.5,30.19,West,270,4.6,4.6,35,0.00,CLR,,0.00,WeatherDisplay:10.37,2013-06-12 18:54:00,
2013-06-12 11:59:00,63.9,34.2,30.19,NW,315,3.5,3.5,33,0.00,CLR,,0.00,WeatherDisplay:10.37,2013-06-12 18:59:00,
2013-06-12 12:04:00,64.8,32.6,30.19,NE,45,4.6,4.6,30,0.00,CLR,,0.00,WeatherDisplay:10.37,2013-06-12 19:04:00,
2013-06-12 12:09:00,65.1,36.8,30.19,NW,315,8.1,8.1,35,0.00,CLR,,0.00,WeatherDisplay:10.37,2013-06-12 19:09:00,
2013-06-12 12:14:00,65.1,36.8,30.19,NW,315,6.9,6.9,35,0.00,CLR,,0.00,WeatherDisplay:10.37,2013-06-12 19:14:00,
2013-06-12 12:19:00,65.3,36.2,30.19,West,270,3.5,3.5,34,0.00,CLR,,0.00,WeatherDisplay:10.37,2013-06-12 19:19:00,
2013-06-12 12:24:00,64.9,36.6,30.19,SW,225,3.5,3.5,35,0.00,CLR,,0.00,WeatherDisplay:10.37,2013-06-12 19:24:00,
2013-06-12 12:29:00,65.7,35.0,30.18,West,270,3.5,3.5,32,0.00,CLR,,0.00,WeatherDisplay:10.37,2013-06-12 19:29:00,
2013-06-12 12:34:00,68.0,35.4,30.18,North,0,9.2,9.2,30,0.00,CLR,,0.00,WeatherDisplay:10.37,2013-06-12 19:34:00,
2013-06-12 12:39:00,65.8,32.7,30.19,SW,225,15.0,15.0,29,0.00,CLR,,0.00,WeatherDisplay:10.37,2013-06-12 19:39:00,
2013-06-12 12:44:00,64.4,33.9,30.19,NW,315,8.1,8.1,32,0.00,CLR,,0.00,WeatherDisplay:10.37,2013-06-12 19:44:00,
2013-06-12 12:49:00,65.1,36.0,30.19,West,270,5.8,5.8,34,0.00,CLR,,0.00,WeatherDisplay:10.37,2013-06-12 19:49:00,
2013-06-12 12:54:00,66.2,35.4,30.19,West,270,6.9,6.9,32,0.00,CLR,,0.00,WeatherDisplay:10.37,2013-06-12 19:54:00,
2013-06-12 12:59:00,65.5,34.8,30.19,West,270,8.1,8.1,32,0.00,CLR,,0.00,WeatherDisplay:10.37,2013-06-12 19:59:00,
2013-06-12 13:04:00,66.4,34.8,30.19,West,270,5.8,5.8,31,0.00,CLR,,0.00,WeatherDisplay:10.37,2013-06-12 20:04:00,
2013-06-12 13:09:00,66.9,36.1,30.19,West,270,5.8,5.8,32,0.00,CLR,,0.00,WeatherDisplay:10.37,2013-06-12 20:09:00,
2013-06-12 13:14:00,66.9,34.5,30.19,West,270,5.8,5.8,30,0.00,CLR,,0.00,WeatherDisplay:10.37,2013-06-12 20:14:00,
2013-06-12 13:19:00,67.3,36.4,30.19,South,180,3.5,0.0,32,0.00,CLR,,0.00,WeatherDisplay:10.37,2013-06-12 20:19:00,
2013-06-12 13:24:00,67.8,34.4,30.19,West,270,6.9,6.9,29,0.00,CLR,,0.00,WeatherDisplay:10.37,2013-06-12 20:24:00,
2013-06-12 13:29:00,67.5,34.1,30.19,NW,315,8.1,8.1,29,0.00,CLR,,0.00,WeatherDisplay:10.37,2013-06-12 20:29:00,
2013-06-12 13:34:00,68.0,34.5,30.19,West,270,6.9,6.9,29,0.00,CLR,,0.00,WeatherDisplay:10.37,2013-06-12 20:34:00,
2013-06-12 13:39:00,69.8,35.2,30.19,NW,315,6.9,6.9,28,0.00,CLR,,0.00,WeatherDisplay:10.37,2013-06-12 20:39:00,
2013-06-12 13:44:00,70.0,32.5,30.19,West,270,6.9,6.9,25,0.00,CLR,,0.00,WeatherDisplay:10.37,2013-06-12 20:44:00,
2013-06-12 13:49:00,68.4,31.1,30.19,West,270,5.8,5.8,25,0.00,CLR,,0.00,WeatherDisplay:10.37,2013-06-12 20:49:00,
2013-06-12 13:54:00,69.3,33.8,30.19,SW,225,4.6,4.6,27,0.00,CLR,,0.00,WeatherDisplay:10.37,2013-06-12 20:54:00,
2013-06-12 13:59:00,69.6,33.2,30.19,West,270,5.8,5.8,26,0.00,CLR,,0.00,WeatherDisplay:10.37,2013-06-12 20:59:00,
2013-06-12 14:04:00,70.0,32.5,30.19,NE,45,4.6,4.6,25,0.00,CLR,,0.00,WeatherDisplay:10.37,2013-06-12 21:04:00,
2013-06-12 14:09:00,69.4,34.9,30.19,NW,315,5.8,5.8,28,0.00,CLR,,0.00,WeatherDisplay:10.37,2013-06-12 21:09:00,
2013-06-12 14:14:00,68.9,34.4,30.19,West,270,5.8,5.8,28,0.00,CLR,,0.00,WeatherDisplay:10.37,2013-06-12 21:14:00,
2013-06-12 14:19:00,68.7,35.2,30.19,North,0,3.5,3.8,29,0.00,CLR,,0.00,WeatherDisplay:10.37,2013-06-12 21:19:00,
2013-06-12 14:24:00,68.0,34.5,30.19,East,90,8.1,8.1,29,0.00,CLR,,0.00,WeatherDisplay:10.37,2013-06-12 21:24:00,
2013-06-12 14:29:00,67.6,35.9,30.19,NW,315,3.5,3.5,31,0.00,CLR,,0.00,WeatherDisplay:10.37,2013-06-12 21:29:00,
2013-06-12 14:34:00,67.6,34.2,30.19,North,0,8.1,8.1,29,0.00,CLR,,0.00,WeatherDisplay:10.37,2013-06-12 21:34:00,
2013-06-12 14:39:00,67.3,35.6,30.19,NW,315,4.6,4.6,31,0.00,CLR,,0.00,WeatherDisplay:10.37,2013-06-12 21:39:00,
2013-06-12 14:44:00,66.7,35.9,30.19,North,0,6.9,6.9,32,0.00,CLR,,0.00,WeatherDisplay:10.37,2013-06-12 21:44:00,
2013-06-12 14:49:00,66.6,35.8,30.19,North,0,10.4,10.4,32,0.00,CLR,,0.00,WeatherDisplay:10.37,2013-06-12 21:49:00,
2013-06-12 14:54:00,66.4,37.1,30.19,SE,135,8.1,8.1,34,0.00,CLR,,0.00,WeatherDisplay:10.37,2013-06-12 21:54:00,
2013-06-12 14:59:00,66.6,36.5,30.19,NW,315,8.1,8.1,33,0.00,CLR,,0.00,WeatherDisplay:10.37,2013-06-12 21:59:00,
2013-06-12 15:04:00,65.7,35.8,30.19,East,90,10.4,10.4,33,0.00,CLR,,0.00,WeatherDisplay:10.37,2013-06-12 22:04:00,
2013-06-12 15:09:00,65.3,36.2,30.19,North,0,6.0,6.0,34,0.00,CLR,,0.00,WeatherDisplay:10.37,2013-06-12 22:09:00,
2013-06-12 15:14:00,65.8,36.7,30.19,SW,225,4.6,4.6,34,0.00,CLR,,0.00,WeatherDisplay:10.37,2013-06-12 22:14:00,
2013-06-12 15:19:00,65.7,35.0,30.19,NW,315,12.7,12.7,32,0.00,CLR,,0.00,WeatherDisplay:10.37,2013-06-12 22:19:00,
2013-06-12 15:24:00,65.7,35.0,30.19,NE,45,6.9,6.9,32,0.00,CLR,,0.00,WeatherDisplay:10.37,2013-06-12 22:24:00,
2013-06-12 15:29:00,66.7,35.1,30.19,North,0,8.1,8.1,31,0.00,CLR,,0.00,WeatherDisplay:10.37,2013-06-12 22:29:00,
2013-06-12 15:34:00,66.4,34.8,30.19,SW,225,5.8,5.8,31,0.00,CLR,,0.00,WeatherDisplay:10.37,2013-06-12 22:34:00,
2013-06-12 15:39:00,67.3,35.6,30.19,NE,45,5.8,5.8,31,0.00,CLR,,0.00,WeatherDisplay:10.37,2013-06-12 22:39:00,
2013-06-12 15:44:00,67.1,34.6,30.19,NW,315,3.5,3.5,30,0.00,CLR,,0.00,WeatherDisplay:10.37,2013-06-12 22:44:00,
2013-06-12 15:49:00,67.6,36.7,30.19,NW,315,9.2,9.2,32,0.00,CLR,,0.00,WeatherDisplay:10.37,2013-06-12 22:49:00,
2013-06-12 15:54:00,67.6,35.1,30.19,NW,315,8.1,8.1,30,0.00,CLR,,0.00,WeatherDisplay:10.37,2013-06-12 22:54:00,
2013-06-12 15:59:00,67.5,34.9,30.19,West,270,13.8,13.8,30,0.00,CLR,,0.00,WeatherDisplay:10.37,2013-06-12 22:59:00,
2013-06-12 16:04:00,66.9,35.3,30.19,NW,315,10.4,10.4,31,0.00,CLR,,0.00,WeatherDisplay:10.37,2013-06-12 23:04:00,
2013-06-12 16:09:00,66.2,37.0,30.19,SE,135,4.6,4.6,34,0.00,CLR,,0.00,WeatherDisplay:10.37,2013-06-12 23:09:00,
2013-06-12 16:14:00,67.5,36.6,30.19,NW,315,3.5,3.5,32,0.00,CLR,,0.00,WeatherDisplay:10.37,2013-06-12 23:14:00,
2013-06-12 16:19:00,67.6,35.9,30.19,NE,45,5.8,5.8,31,0.00,CLR,,0.00,WeatherDisplay:10.37,2013-06-12 23:19:00,
2013-06-12 16:25:00,67.3,36.4,30.19,East,90,2.3,2.3,32,0.00,CLR,,0.00,WeatherDisplay:10.37,2013-06-12 23:25:00,
2013-06-12 16:30:00,68.0,37.0,30.19,East,90,2.3,2.3,32,0.00,CLR,,0.00,WeatherDisplay:10.37,2013-06-12 23:30:00,
2013-06-12 16:35:00,68.4,34.8,30.19,West,270,5.8,5.8,29,0.00,CLR,,0.00,WeatherDisplay:10.37,2013-06-12 23:35:00,
2013-06-12 16:40:00,67.5,34.9,30.19,West,270,5.8,5.8,30,0.00,CLR,,0.00,WeatherDisplay:10.37,2013-06-12 23:40:00,
2013-06-12 16:45:00,65.8,35.1,30.19,NE,45,4.6,4.6,32,0.00,CLR,,0.00,WeatherDisplay:10.37,2013-06-12 23:45:00,
2013-06-12 16:50:00,65.3,36.2,30.19,West,270,5.8,5.8,34,0.00,CLR,,0.00,WeatherDisplay:10.37,2013-06-12 23:50:00,
2013-06-12 16:55:00,65.7,37.2,30.19,SW,225,8.1,8.1,35,0.00,CLR,,0.00,WeatherDisplay:10.37,2013-06-12 23:55:00,
2013-06-12 17:00:00,66.4,37.1,30.19,SW,225,5.8,5.8,34,0.00,CLR,,0.00,WeatherDisplay:10.37,2013-06-13 00:00:00,
2013-06-12 17:05:00,66.6,35.8,30.19,North,0,3.5,3.5,32,0.00,CLR,,0.00,WeatherDisplay:10.37,2013-06-13 00:05:00,
2013-06-12 17:10:00,66.7,34.3,30.19,NW,315,10.4,10.4,30,0.00,CLR,,0.00,WeatherDisplay:10.37,2013-06-13 00:10:00,
2013-06-12 17:15:00,65.7,35.0,30.19,West,270,8.1,8.1,32,0.00,CLR,,0.00,WeatherDisplay:10.37,2013-06-13 00:15:00,
2013-06-12 17:20:00,66.7,34.3,30.19,NE,45,6.9,6.9,30,0.00,CLR,,0.00,WeatherDisplay:10.37,2013-06-13 00:20:00,
2013-06-12 17:25:00,67.3,33.0,30.19,West,270,10.4,10.4,28,0.00,CLR,,0.00,WeatherDisplay:10.37,2013-06-13 00:25:00,
2013-06-12 17:30:00,67.1,32.9,30.19,North,0,5.8,5.8,28,0.00,CLR,,0.00,WeatherDisplay:10.37,2013-06-13 00:30:00,
2013-06-12 17:35:00,66.9,32.7,30.18,North,0,9.2,9.2,28,0.00,CLR,,0.00,WeatherDisplay:10.37,2013-06-13 00:35:00,
2013-06-12 17:40:00,67.3,33.0,30.18,SE,135,4.6,4.6,28,0.00,CLR,,0.00,WeatherDisplay:10.37,2013-06-13 00:40:00,
2013-06-12 17:45:00,68.0,31.8,30.18,SE,135,3.5,3.5,26,0.00,CLR,,0.00,WeatherDisplay:10.37,2013-06-13 00:45:00,
2013-06-12 17:50:00,67.8,32.6,30.18,South,180,4.6,4.6,27,0.00,CLR,,0.00,WeatherDisplay:10.37,2013-06-13 00:50:00,
2013-06-12 17:55:00,69.1,32.7,30.18,North,0,3.5,3.5,26,0.00,CLR,,0.00,WeatherDisplay:10.37,2013-06-13 00:55:00,
2013-06-12 18:00:00,69.3,30.9,30.18,NW,315,9.2,9.2,24,0.00,CLR,,0.00,WeatherDisplay:10.37,2013-06-13 01:00:00,
2013-06-12 18:05:00,68.0,30.8,30.18,SW,225,9.2,9.2,25,0.00,CLR,,0.00,WeatherDisplay:10.37,2013-06-13 01:05:00,
2013-06-12 18:10:00,67.8,30.7,30.18,NW,315,8.1,8.1,25,0.00,CLR,,0.00,WeatherDisplay:10.37,2013-06-13 01:10:00,
2013-06-12 18:15:00,66.4,31.4,30.18,SW,225,5.8,5.8,27,0.00,CLR,,0.00,WeatherDisplay:10.37,2013-06-13 01:15:00,
2013-06-12 18:20:00,66.2,32.1,30.18,East,90,12.7,12.7,28,0.00,CLR,,0.00,WeatherDisplay:10.37,2013-06-13 01:20:00,
2013-06-12 18:25:00,66.0,32.0,30.18,NW,315,10.4,10.4,28,0.00,CLR,,0.00,WeatherDisplay:10.37,2013-06-13 01:25:00,
2013-06-12 18:30:00,65.7,32.5,30.18,NE,45,5.8,5.8,29,0.00,CLR,,0.00,WeatherDisplay:10.37,2013-06-13 01:30:00,
2013-06-12 18:35:00,66.7,33.4,30.18,West,270,3.5,3.5,29,0.00,CLR,,0.00,WeatherDisplay:10.37,2013-06-13 01:35:00,
2013-06-12 18:40:00,67.8,31.7,30.18,SE,135,8.1,8.1,26,0.00,CLR,,0.00,WeatherDisplay:10.37,2013-06-13 01:40:00,
2013-06-12 18:45:00,67.1,31.0,30.18,North,0,10.4,10.4,26,0.00,CLR,,0.00,WeatherDisplay:10.37,2013-06-13 01:45:00,
2013-06-12 18:50:00,66.7,32.6,30.18,NW,315,9.2,9.2,28,0.00,CLR,,0.00,WeatherDisplay:10.37,2013-06-13 01:50:00,
2013-06-12 18:55:00,66.4,33.1,30.18,West,270,3.5,3.5,29,0.00,CLR,,0.00,WeatherDisplay:10.37,2013-06-13 01:55:00,
2013-06-12 19:00:00,66.7,34.3,30.18,NW,315,5.8,5.8,30,0.00,CLR,,0.00,WeatherDisplay:10.37,2013-06-13 02:00:00,
2013-06-12 19:05:00,66.4,34.0,30.18,East,90,2.3,2.3,30,0.00,CLR,,0.00,WeatherDisplay:10.37,2013-06-13 02:05:00,
2013-06-12 19:10:00,66.2,33.8,30.19,West,270,9.2,9.2,30,0.00,CLR,,0.00,WeatherDisplay:10.37,2013-06-13 02:10:00,
2013-06-12 19:15:00,65.7,34.2,30.19,SE,135,6.9,6.9,31,0.00,CLR,,0.00,WeatherDisplay:10.37,2013-06-13 02:15:00,
2013-06-12 19:20:00,65.3,34.7,30.19,NW,315,3.5,3.5,32,0.00,CLR,,0.00,WeatherDisplay:10.37,2013-06-13 02:20:00,
2013-06-12 19:25:00,64.8,32.6,30.19,West,270,5.8,5.8,30,0.00,CLR,,0.00,WeatherDisplay:10.37,2013-06-13 02:25:00,
2013-06-12 19:30:00,64.6,33.2,30.19,WNW,292,3.5,3.5,31,0.00,CLR,,0.00,WeatherDisplay:10.37,2013-06-13 02:30:00,
2013-06-12 19:35:00,64.8,35.0,30.19,East,90,8.1,8.1,33,0.00,CLR,,0.00,WeatherDisplay:10.37,2013-06-13 02:35:00,
2013-06-12 19:40:00,64.2,35.2,30.19,North,0,3.5,3.5,34,0.00,CLR,,0.00,WeatherDisplay:10.37,2013-06-13 02:40:00,
2013-06-12 19:45:00,63.9,35.7,30.19,West,270,3.5,3.5,35,0.00,CLR,,0.00,WeatherDisplay:10.37,2013-06-13 02:45:00,
2013-06-12 19:50:00,63.7,35.5,30.19,East,90,5.8,5.8,35,0.00,CLR,,0.00,WeatherDisplay:10.37,2013-06-13 02:50:00,
2013-06-12 19:55:00,62.2,36.3,30.19,NE,45,8.1,8.1,38,0.00,CLR,,0.00,WeatherDisplay:10.37,2013-06-13 02:55:00,
2013-06-12 20:00:00,60.6,36.1,30.20,West,270,5.8,5.8,40,0.00,CLR,,0.00,WeatherDisplay:10.37,2013-06-13 03:00:00,
2013-06-12 20:05:00,60.3,36.4,30.20,NW,315,3.5,3.5,41,0.00,CLR,,0.00,WeatherDisplay:10.37,2013-06-13 03:05:00,
2013-06-12 20:10:00,59.5,36.4,30.20,West,270,5.4,5.4,42,0.00,CLR,,0.00,WeatherDisplay:10.37,2013-06-13 03:10:00,
2013-06-12 20:15:00,58.3,35.3,30.20,West,270,2.3,2.3,42,0.00,CLR,,0.00,WeatherDisplay:10.37,2013-06-13 03:15:00,
2013-06-12 20:20:00,57.2,34.9,30.20,SW,225,5.8,0.0,43,0.00,CLR,,0.00,WeatherDisplay:10.37,2013-06-13 03:20:00,
2013-06-12 20:25:00,56.1,32.1,30.20,West,270,1.2,1.2,40,0.00,CLR,,0.00,WeatherDisplay:10.37,2013-06-13 03:25:00,
2013-06-12 20:30:00,55.4,32.7,30.20,West,270,2.3,0.0,42,0.00,CLR,,0.00,WeatherDisplay:10.37,2013-06-13 03:30:00,
2013-06-12 20:35:00,54.9,32.8,30.20,North,0,1.2,0.0,43,0.00,CLR,,0.00,WeatherDisplay:10.37,2013-06-13 03:35:00,
2013-06-12 20:40:00,54.5,33.6,30.20,NE,45,1.2,0.0,45,0.00,CLR,,0.00,WeatherDisplay:10.37,2013-06-13 03:40:00,
2013-06-12 20:45:00,54.0,33.6,30.20,NW,315,1.2,0.0,46,0.00,CLR,,0.00,WeatherDisplay:10.37,2013-06-13 03:45:00,
2013-06-12 20:50:00,53.6,34.4,30.20,West,270,1.2,0.0,48,0.00,CLR,,0.00,WeatherDisplay:10.37,2013-06-13 03:50:00,
2013-06-12 20:55:00,53.4,34.7,30.20,West,270,1.2,0.0,49,0.00,CLR,,0.00,WeatherDisplay:10.37,2013-06-13 03:55:00,
2013-06-12 21:00:00,53.1,37.8,30.20,West,270,1.2,0.0,56,0.00,CLR,,0.00,WeatherDisplay:10.37,2013-06-13 04:00:00,
2013-06-12 21:01:00,52.9,38.5,30.20,West,270,1.2,0.0,58,0.00,CLR,,0.00,WeatherDisplay:10.37,2013-06-13 04:01:00,
2013-06-12 21:02:00,52.9,39.8,30.20,West,270,1.2,0.0,61,0.00,CLR,,0.00,WeatherDisplay:10.37,2013-06-13 04:02:00,
2013-06-12 21:04:00,52.7,39.6,30.20,West,270,2.3,0.0,61,0.00,CLR,,0.00,WeatherDisplay:10.37,2013-06-13 04:04:00,
2013-06-12 21:09:00,52.5,38.2,30.20,NW,315,2.3,2.3,58,0.00,CLR,,0.00,WeatherDisplay:10.37,2013-06-13 04:09:00,
2013-06-12 21:14:00,52.3,38.0,30.21,East,90,1.2,0.0,58,0.00,CLR,,0.00,WeatherDisplay:10.37,2013-06-13 04:14:00,
2013-06-12 21:19:00,52.0,37.2,30.21,West,270,1.2,0.0,57,0.00,CLR,,0.00,WeatherDisplay:10.37,2013-06-13 04:19:00,
2013-06-12 21:24:00,51.4,35.3,30.21,SW,225,0.0,0.0,54,0.00,CLR,,0.00,WeatherDisplay:10.37,2013-06-13 04:24:00,
2013-06-12 21:29:00,51.1,35.5,30.21,SW,225,1.2,0.0,55,0.00,CLR,,0.00,WeatherDisplay:10.37,2013-06-13 04:29:00,
2013-06-12 21:34:00,50.5,35.4,30.21,SW,225,1.2,0.0,56,0.00,CLR,,0.00,WeatherDisplay:10.37,2013-06-13 04:34:00,
2013-06-12 21:39:00,50.2,36.0,30.21,SW,225,1.2,0.0,58,0.00,CLR,,0.00,WeatherDisplay:10.37,2013-06-13 04:39:00,
2013-06-12 21:44:00,49.8,36.9,30.21,SW,225,1.2,0.0,61,0.00,CLR,,0.00,WeatherDisplay:10.37,2013-06-13 04:44:00,
2013-06-12 21:49:00,49.5,36.6,30.21,SW,225,1.2,0.0,61,0.00,CLR,,0.00,WeatherDisplay:10.37,2013-06-13 04:49:00,
2013-06-12 21:54:00,49.3,37.2,30.21,SW,225,2.3,0.0,63,0.00,CLR,,0.00,WeatherDisplay:10.37,2013-06-13 04:54:00,
2013-06-12 21:59:00,48.9,36.9,30.21,South,180,2.3,2.3,63,0.00,CLR,,0.00,WeatherDisplay:10.37,2013-06-13 04:59:00,
2013-06-12 22:04:00,48.6,36.5,30.21,SW,225,2.3,2.3,63,0.00,CLR,,0.00,WeatherDisplay:10.37,2013-06-13 05:04:00,
2013-06-12 22:09:00,48.2,36.6,30.21,West,270,1.6,1.6,64,0.00,CLR,,0.00,WeatherDisplay:10.37,2013-06-13 05:09:00,
2013-06-12 22:14:00,48.2,36.2,30.22,West,270,0.0,0.0,63,0.00,CLR,,0.00,WeatherDisplay:10.37,2013-06-13 05:14:00,
2013-06-12 22:19:00,47.8,35.4,30.22,South,180,0.0,0.0,62,0.00,CLR,,0.00,WeatherDisplay:10.37,2013-06-13 05:19:00,
2013-06-12 22:24:00,47.5,35.1,30.22,SW,225,1.2,1.2,62,0.00,CLR,,0.00,WeatherDisplay:10.37,2013-06-13 05:24:00,
2013-06-12 22:29:00,47.1,34.8,30.22,South,180,0.0,0.0,62,0.00,CLR,,0.00,WeatherDisplay:10.37,2013-06-13 05:29:00,
2013-06-12 22:34:00,46.9,34.6,30.22,South,180,0.0,0.0,62,0.00,CLR,,0.00,WeatherDisplay:10.37,2013-06-13 05:34:00,
2013-06-12 22:39:00,46.8,33.6,30.22,South,180,1.2,0.0,60,0.00,CLR,,0.00,WeatherDisplay:10.37,2013-06-13 05:39:00,
2013-06-12 22:44:00,46.6,33.8,30.22,South,180,0.0,0.0,61,0.00,CLR,,0.00,WeatherDisplay:10.37,2013-06-13 05:44:00,
2013-06-12 22:49:00,46.4,32.4,30.22,South,180,0.0,0.0,58,0.00,CLR,,0.00,WeatherDisplay:10.37,2013-06-13 05:49:00,
2013-06-12 22:54:00,46.2,32.7,30.22,South,180,1.2,0.0,59,0.00,CLR,,0.00,WeatherDisplay:10.37,2013-06-13 05:54:00,
2013-06-12 22:59:00,45.9,32.3,30.22,South,180,1.2,0.0,59,0.00,CLR,,0.00,WeatherDisplay:10.37,2013-06-13 05:59:00,
2013-06-12 23:04:00,45.5,28.4,30.22,South,180,1.2,0.0,51,0.00,CLR,,0.00,WeatherDisplay:10.37,2013-06-13 06:04:00,
2013-06-12 23:09:00,45.3,25.2,30.22,South,180,0.0,0.0,45,0.00,CLR,,0.00,WeatherDisplay:10.37,2013-06-13 06:09:00,
2013-06-12 23:14:00,45.3,25.7,30.22,South,180,1.2,0.0,46,0.00,CLR,,0.00,WeatherDisplay:10.37,2013-06-13 06:14:00,
2013-06-12 23:19:00,45.1,25.6,30.22,South,180,0.0,0.0,46,0.00,CLR,,0.00,WeatherDisplay:10.37,2013-06-13 06:19:00,
2013-06-12 23:24:00,44.8,25.2,30.22,South,180,0.0,0.0,46,0.00,CLR,,0.00,WeatherDisplay:10.37,2013-06-13 06:24:00,
2013-06-12 23:29:00,44.8,25.8,30.22,SW,225,0.0,0.0,47,0.00,CLR,,0.00,WeatherDisplay:10.37,2013-06-13 06:29:00,
2013-06-12 23:34:00,44.8,26.3,30.22,SW,225,1.2,0.0,48,0.00,CLR,,0.00,WeatherDisplay:10.37,2013-06-13 06:34:00,
2013-06-12 23:39:00,44.8,26.3,30.22,SW,225,0.0,0.0,48,0.00,CLR,,0.00,WeatherDisplay:10.37,2013-06-13 06:39:00,
2013-06-12 23:44:00,44.8,26.8,30.22,SW,225,0.0,0.0,49,0.00,CLR,,0.00,WeatherDisplay:10.37,2013-06-13 06:44:00,
2013-06-12 23:49:00,44.8,26.8,30.22,SW,225,0.0,0.0,49,0.00,CLR,,0.00,WeatherDisplay:10.37,2013-06-13 06:49:00,
2013-06-12 23:54:00,44.8,27.3,30.22,West,270,0.0,0.0,50,0.00,CLR,,0.00,WeatherDisplay:10.37,2013-06-13 06:54:00,
2013-06-12 23:59:00,44.6,27.1,30.22,SW,225,0.0,0.0,50,0.00,CLR,,0.00,WeatherDisplay:10.37,2013-06-13 06:59:00,